x

Tanner Bank - 121nm West Of San Diego, Ca (46047) Wave Buoy

11:50pm - Sat 25th Mar 2017 All times are PDT. -7 hours from GMT.

  • Sig Wave height 8.2ft
  • Swell Direction
  • Peak Period 16s
  • Average Period 7s
  • Wind
    22mph, 27mph gusts
  • Sea Temp 60°f
  • 空気 Temp 58°f
  • Sea Pressure 1018.2mb
  • Tanner Bank - 121nm West Of San Diego, Ca
  • Tanner Bank - 121nm West Of San Diego, Ca

More Historic Weather Station data

Upgrade to MSW Pro to gain access to the past 30 days of data for over 8000 Wavebouys and Weather Stations around the globe.

Join Pro

Comparision Forecast

View Surf forecast
   
Sat 03/25 11:50pm 8ft 16s 7s 22 27 mph 1018.2mb 60f 58f
10:50pm 7.5ft 16s 6s 22 27 mph 1018.3mb 60f 58f
9:50pm 7.5ft 16s 6s 22 27 mph 1018.5mb 60f 58f
8:50pm 7ft 16s 6s 22 27 mph 1018.6mb 60f 58f
7:50pm 7ft 12s 6s 22 27 mph 1018.2mb 60f 58f
6:50pm 6.5ft 11s 6s 22 27 mph 1018.3mb 60f 58f
5:50pm 7ft 12s 6s 20 22 mph 1018.1mb 60f 58f
4:50pm 7ft 10s 6s 22 27 mph 1018.1mb 60f 58f
3:50pm 7ft 10s 6s 22 27 mph 1018.6mb 60f 58f
2:50pm 6.5ft 12s 6s 22 25 mph 1019.1mb 60f 58f
1:50pm 6ft 13s 6s 20 25 mph 1019.7mb 60f 58f
12:50pm 6ft 15s 6s 22 27 mph 1019.8mb 60f 58f
11:50am 6ft 10s 7s 18 20 mph 1019.7mb 60f 59f
10:50am 5.5ft 11s 7s 9 11 mph 1019.9mb 60f 58f
9:50am 5ft 14s 7s 11 13 mph 1020.2mb 59f 58f
8:50am 5.5ft 10s 7s 9 11 mph 1020.7mb 59f 59f
7:50am 5.5ft 11s 7s 11 13 mph 1020.5mb 59f 59f
6:50am 6ft 15s 7s 11 13 mph 1020.2mb 59f 59f
5:50am 5.5ft 11s 7s 13 18 mph 1020mb 59f 59f
4:50am 5.5ft 14s 7s 16 20 mph 1020.2mb 59f 59f
3:50am 5ft 14s 7s 16 20 mph 1020.8mb 59f 59f
2:50am 5ft 13s 7s 16 20 mph 1021.4mb 59f 59f
1:50am 5ft 15s 7s 13 18 mph 1021.8mb 59f 59f
12:50am 5ft 14s 7s 7 9 mph 1021.7mb 59f 58f
Fri 03/24 11:50pm 5ft 15s 7s 2 4 mph 1021.5mb 59f 58f
10:50pm 5.5ft 15s 6s 13 16 mph 1022.7mb 59f 58f
9:50pm 5.5ft 15s 6s 16 20 mph 1023mb 59f 58f
8:50pm 5ft 14s 6s 18 22 mph 1023.2mb 59f 58f
7:50pm 5ft 8s 6s 18 20 mph 1022.9mb 59f 58f
6:50pm 5.5ft 14s 6s 18 20 mph 1022.7mb 60f 58f
5:50pm 5ft 15s 6s 18 20 mph 1022.5mb 60f 58f
4:50pm 6ft 15s 6s 20 22 mph 1022.6mb 60f 58f
3:50pm 6ft 14s 6s 18 20 mph 1023.1mb 60f 58f
2:50pm 6ft 15s 7s 20 22 mph 1024mb 59f 58f
1:50pm 6ft 15s 7s 20 22 mph 1024.7mb 59f 57f
12:50pm 6.5ft 15s 7s 13 16 mph 1024.8mb 59f 57f
11:50am 6ft 13s 7s 11 13 mph 1024.9mb 59f 57f
10:50am 6.5ft 15s 7s 13 18 mph 1024.9mb 59f 57f
9:50am 7ft 13s 7s 16 18 mph 1024.5mb 59f 57f
8:50am 7ft 15s 7s 16 18 mph 1024.1mb 59f 57f
7:50am 7ft 13s 7s 13 18 mph 1024.1mb 59f 57f
6:50am 7ft 13s 7s 16 20 mph 1023.6mb 59f 56f
5:50am 7ft 16s 7s 16 18 mph 1023.4mb 59f 56f
4:50am 7.5ft 14s 7s 16 18 mph 1023.6mb 59f 56f
3:50am 8ft 14s 7s 16 20 mph 1023.8mb 59f 56f
2:50am 8ft 15s 7s 16 18 mph 1024mb 59f 56f
1:50am 8.5ft 16s 7s 18 20 mph 1024mb 59f 56f
12:50am 9ft 14s 7s 18 22 mph 1023.7mb 59f 56f
Thu 03/23 11:50pm 9.5ft 8s 7s 16 20 mph 1024.1mb 59f 57f
10:50pm 9ft 14s 7s 18 22 mph 1024.1mb 59f 57f
9:50pm 10ft 6s 7s 22 29 mph 1023.5mb 59f 57f
8:50pm 9.5ft 11s 7s 25 29 mph 1023.2mb 59f 57f
7:50pm 9.5ft 7s 7s 22 29 mph 1022.6mb 59f 57f
6:50pm 9ft 8s 7s 27 31 mph 1021.8mb 59f 57f
5:50pm 9ft 8s 7s 27 34 mph 1021.5mb 59f 57f
4:50pm 10ft 16s 7s 20 25 mph 1022.2mb 59f 57f
3:50pm 9ft 8s 7s 25 29 mph 1021.9mb 59f 57f
2:50pm 11ft 7s 7s 25 27 mph 1022.5mb 59f 57f
1:50pm 11ft 8s 7s 25 27 mph 1022.9mb 59f 57f
12:50pm 11.5ft 16s 7s 27 31 mph 1022.8mb 59f 57f
11:50am 11.5ft 9s 7s 27 31 mph 1022.6mb 59f 57f
10:50am 12ft 8s 7s 29 36 mph 1022.3mb 59f 57f
9:50am 12ft 8s 7s 27 34 mph 1021.9mb 59f 56f
8:50am 11.5ft 8s 7s 27 31 mph 1021mb 59f 56f
7:50am 11.5ft 8s 7s 29 34 mph 1020.4mb 59f 57f
6:50am 12.5ft 8s 7s 31 38 mph 1019.6mb 59f 56f
5:50am 11ft 8s 6s 31 38 mph 1019.4mb 59f 57f
4:50am 12ft 8s 7s 29 36 mph 1019.2mb 59f 57f
3:50am 11ft 7s 6s 31 36 mph 1019.1mb 60f 57f
2:50am 9.5ft 6s 6s 29 38 mph 1019.3mb 60f 57f
1:50am 9.5ft 6s 6s 27 34 mph 1019.3mb 60f 57f
12:50am 9.5ft 6s 6s 27 34 mph 1019.4mb 60f 58f
Wed 03/22 11:50pm 8.5ft 13s 6s 25 34 mph 1019mb 60f 58f
10:50pm 9ft 13s 7s 27 31 mph 1018.8mb 60f 58f
9:50pm 9ft 13s 7s 25 29 mph 1018.4mb 60f 58f
8:50pm 8ft 12s 7s 22 29 mph 1017.8mb 60f 59f
7:50pm 7ft 11s 7s 22 27 mph 1017.3mb 60f 59f
6:50pm 6ft 16s 7s 22 27 mph 1017mb 60f 59f
5:50pm 6ft 13s 7s 18 25 mph 1016.9mb 60f 59f
4:50pm 5ft 16s 7s 16 18 mph 1016.9mb 60f 60f
3:50pm 4.5ft 16s 6s 16 18 mph 1017.1mb 60f 60f
2:50pm 5ft 15s 7s 11 13 mph 1017.6mb 60f 60f
1:50pm 4.5ft 16s 6s 13 16 mph 1018.1mb 60f 60f
12:50pm 4.5ft 16s 7s 13 16 mph 1018.1mb 60f 59f
11:50am 5ft 16s 7s 11 13 mph 1018.8mb 60f 59f
10:50am 4.5ft 15s 7s 13 16 mph 1018.9mb 60f 59f
9:50am 4.5ft 16s 7s 11 13 mph 1018.6mb 60f 59f
8:50am 4.5ft 15s 7s 11
mph
1018.6mb 60f 59f
7:50am 5ft 16s 7s 11
mph
1017.6mb 60f 58f